| time (UTC) | temp C | wind direction | speed KPH | gust KPH | rain 1hr cm | rain 24hr cm | rain mn cm | humidity % | barometer mb |
| 20260505121551 | 16 | 216 | 8.0 | 19.3 | 0.05 | 0.05 | 0.05 | 67 | 1005.7 |
| 20260505120056 | 15 | 239 | 8.0 | 25.7 | 0.05 | 0.05 | 0.05 | 70 | 1005.8 |
| 20260505114550 | 15 | 222 | 11.3 | 24.1 | 0.05 | 0.05 | 0.05 | 71 | 1005.2 |
| 20260505113046 | 16 | 207 | 17.7 | 27.4 | 0.03 | 0.03 | 0.03 | 67 | 1005.2 |
| 20260505111544 | 16 | 254 | 1.6 | 19.3 | 0.00 | 0.00 | 0.00 | 63 | 1006.2 |
| 20260505101544 | 17 | 237 | 1.6 | 11.3 | 0.00 | 0.00 | 0.00 | 58 | 1005.6 |
| 20260505100037 | 17 | 238 | 6.4 | 17.7 | 0.00 | 0.00 | 0.00 | 57 | 1005.3 |
| 20260505094536 | 17 | 213 | 9.7 | 20.9 | 0.00 | 0.00 | 0.00 | 56 | 1005.1 |
| 20260505093036 | 17 | 232 | 4.8 | 16.1 | 0.00 | 0.00 | 0.00 | 57 | 1005.0 |
| 20260505091536 | 16 | 207 | 4.8 | 17.7 | 0.00 | 0.00 | 0.00 | 58 | 1004.8 |
| 20260505090041 | 15 | 213 | 4.8 | 12.9 | 0.00 | 0.00 | 0.00 | 61 | 1004.7 |
| 20260505084541 | 14 | 279 | 1.6 | 8.0 | 0.00 | 0.00 | 0.00 | 63 | 1004.7 |
| 20260505083030 | 15 | 211 | 6.4 | 17.7 | 0.00 | 0.00 | 0.00 | 59 | 1004.6 |
| 20260505081527 | 16 | 191 | 1.6 | 14.5 | 0.00 | 0.00 | 0.00 | 57 | 1004.7 |
| 20260505080039 | 16 | 159 | 1.6 | 12.9 | 0.00 | 0.00 | 0.00 | 56 | 1004.9 |
| 20260505074527 | 16 | 213 | 1.6 | 11.3 | 0.00 | 0.00 | 0.00 | 54 | 1004.9 |
| 20260505073029 | 17 | 187 | 1.6 | 8.0 | 0.00 | 0.00 | 0.00 | 53 | 1004.8 |
| 20260505071520 | 17 | 227 | 6.4 | 16.1 | 0.00 | 0.00 | 0.00 | 52 | 1004.7 |
| 20260505070020 | 17 | 209 | 8.0 | 16.1 | 0.00 | 0.00 | 0.00 | 52 | 1004.8 |
| 20260505064520 | 17 | 183 | 8.0 | 22.5 | 0.00 | 0.00 | 0.00 | 51 | 1004.8 |
| 20260505063018 | 17 | 217 | 14.5 | 25.7 | 0.00 | 0.00 | 0.00 | 50 | 1004.9 |
| 20260505061515 | 17 | 218 | 17.7 | 30.6 | 0.00 | 0.00 | 0.00 | 49 | 1004.8 |
| 20260505060019 | 17 | 246 | 14.5 | 32.2 | 0.00 | 0.00 | 0.00 | 49 | 1004.8 |
| 20260505054512 | 17 | 235 | 9.7 | 17.7 | 0.00 | 0.00 | 0.00 | 49 | 1004.9 |
| 20260505053010 | 17 | 214 | 9.7 | 24.1 | 0.00 | 0.00 | 0.00 | 49 | 1004.9 |
| 20260505051510 | 17 | 215 | 12.9 | 24.1 | 0.00 | 0.00 | 0.00 | 48 | 1005.0 |
| 20260505041558 | 18 | 233 | 6.4 | 17.7 | 0.00 | 0.00 | 0.00 | 47 | 1004.8 |
| 20260505040104 | 18 | 242 | 9.7 | 29.0 | 0.00 | 0.00 | 0.00 | 47 | 1004.9 |
| 20260505034557 | 17 | 192 | 12.9 | 27.4 | 0.00 | 0.00 | 0.00 | 47 | 1004.7 |
| 20260505033057 | 17 | 205 | 6.4 | 12.9 | 0.00 | 0.00 | 0.00 | 47 | 1005.0 |
| 20260505031559 | 18 | 213 | 8.0 | 16.1 | 0.00 | 0.00 | 0.00 | 46 | 1004.9 |
| 20260505030059 | 18 | 231 | 8.0 | 19.3 | 0.00 | 0.00 | 0.00 | 46 | 1004.9 |
| 20260505024554 | 18 | 236 | 8.0 | 22.5 | 0.00 | 0.00 | 0.00 | 45 | 1005.1 |
| 20260505023052 | 18 | 214 | 12.9 | 32.2 | 0.00 | 0.00 | 0.00 | 44 | 1005.2 |
| 20260505021551 | 18 | 205 | 12.9 | 25.7 | 0.00 | 0.00 | 0.00 | 43 | 1005.3 |
| 20260505020052 | 18 | 200 | 14.5 | 29.0 | 0.00 | 0.00 | 0.00 | 42 | 1005.3 |
| 20260505014603 | 19 | 219 | 12.9 | 22.5 | 0.00 | 0.00 | 0.00 | 41 | 1005.4 |
| 20260505013050 | 19 | 233 | 14.5 | 27.4 | 0.00 | 0.00 | 0.00 | 41 | 1005.0 |
| 20260505011552 | 19 | 184 | 8.0 | 20.9 | 0.00 | 0.00 | 0.00 | 41 | 1005.1 |
| 20260505010048 | 19 | 229 | 12.9 | 24.1 | 0.00 | 0.00 | 0.00 | 41 | 1004.9 |
| 20260505004554 | 19 | 207 | 11.3 | 22.5 | 0.00 | 0.00 | 0.00 | 40 | 1004.8 |
| 20260505003052 | 20 | 211 | 8.0 | 22.5 | 0.00 | 0.00 | 0.00 | 40 | 1004.8 |
| 20260505001548 | 20 | 220 | 9.7 | 22.5 | 0.00 | 0.00 | 0.00 | 39 | 1004.6 |
| 20260505000052 | 20 | 204 | 12.9 | 27.4 | 0.00 | 0.00 | 0.00 | 38 | 1004.5 |
| 20260504234547 | 20 | 217 | 11.3 | 24.1 | 0.00 | 0.00 | 0.00 | 37 | 1004.4 |
| 20260504233045 | 21 | 226 | 8.0 | 22.5 | 0.00 | 0.00 | 0.00 | 37 | 1004.3 |
| 20260504231543 | 21 | 222 | 14.5 | 30.6 | 0.00 | 0.00 | 0.00 | 35 | 1004.3 |
| 20260504230049 | 21 | 220 | 9.7 | 16.1 | 0.00 | 0.00 | 0.00 | 35 | 1004.2 |
| 20260504224547 | 22 | 211 | 8.0 | 25.7 | 0.00 | 0.00 | 0.00 | 34 | 1004.1 |
| 20260504223042 | 22 | 216 | 11.3 | 20.9 | 0.00 | 0.00 | 0.00 | 34 | 1004.2 |
| 20260504221542 | 22 | 227 | 11.3 | 22.5 | 0.00 | 0.00 | 0.00 | 33 | 1004.1 |
| 20260504220040 | 22 | 208 | 8.0 | 20.9 | 0.00 | 0.00 | 0.00 | 33 | 1004.1 |
| 20260504214546 | 22 | 183 | 8.0 | 22.5 | 0.00 | 0.00 | 0.00 | 32 | 1004.1 |
| 20260504213039 | 22 | 257 | 4.8 | 19.3 | 0.00 | 0.00 | 0.00 | 31 | 1004.2 |
| 20260504211537 | 22 | 242 | 11.3 | 33.8 | 0.00 | 0.00 | 0.00 | 31 | 1004.4 |
| 20260504210053 | 22 | 224 | 6.4 | 25.7 | 0.00 | 0.00 | 0.00 | 31 | 1004.5 |
| 20260504204551 | 22 | 271 | 6.4 | 20.9 | 0.00 | 0.00 | 0.00 | 30 | 1004.4 |
| 20260504203035 | 22 | 158 | 8.0 | 24.1 | 0.00 | 0.00 | 0.00 | 31 | 1005.0 |
| 20260504201531 | 23 | 220 | 6.4 | 14.5 | 0.00 | 0.00 | 0.00 | 30 | 1005.1 |
| 20260504200029 | 22 | 233 | 14.5 | 27.4 | 0.00 | 0.00 | 0.00 | 30 | 1005.2 |
| 20260504194526 | 22 | 243 | 4.8 | 14.5 | 0.00 | 0.00 | 0.00 | 34 | 1005.4 |
| 20260504193025 | 22 | 232 | 9.7 | 32.2 | 0.00 | 0.00 | 0.00 | 32 | 1005.6 |
| 20260504191522 | 22 | 247 | 14.5 | 32.2 | 0.00 | 0.00 | 0.00 | 33 | 1005.8 |
| 20260504190022 | 22 | 234 | 14.5 | 32.2 | 0.00 | 0.00 | 0.00 | 32 | 1006.0 |
| 20260504184521 | 22 | 253 | 12.9 | 24.1 | 0.00 | 0.00 | 0.00 | 34 | 1005.9 |
| 20260504183017 | 21 | 291 | 6.4 | 17.7 | 0.00 | 0.00 | 0.00 | 36 | 1006.0 |
| 20260504181515 | 21 | 259 | 9.7 | 24.1 | 0.00 | 0.00 | 0.00 | 36 | 1006.1 |
| 20260504180013 | 21 | 251 | 8.0 | 22.5 | 0.00 | 0.00 | 0.00 | 35 | 1006.3 |
| 20260504174512 | 21 | 229 | 9.7 | 20.9 | 0.00 | 0.00 | 0.00 | 37 | 1006.7 |
| 20260504173009 | 21 | 233 | 12.9 | 27.4 | 0.00 | 0.00 | 0.00 | 36 | 1006.5 |
| 20260504171506 | 20 | 310 | 6.4 | 33.8 | 0.00 | 0.00 | 0.00 | 38 | 1006.7 |